EN

Hourly Weather Trukhaniv

Today, 9 May, Sunday

Time Temperature Precipitation Wind Pressure Humidity
00:00 +2°C° 0 mm 2 mps 720 mmHg 87%
01:00 +1°C° 0 mm 2 mps 720 mmHg 86%
02:00 +2°C° 0 mm 2 mps 720 mmHg 85%
03:00 +1°C° 0 mm 2 mps 720 mmHg 85%
04:00 +1°C° 0 mm 2 mps 720 mmHg 86%
05:00 +1°C° 0 mm 2 mps 720 mmHg 86%
06:00 +4°C° 0 mm 2 mps 721 mmHg 78%
07:00 +6°C° 0 mm 2 mps 721 mmHg 69%
08:00 +8°C° 0 mm 2 mps 721 mmHg 62%
09:00 +10°C° 0 mm 2 mps 721 mmHg 55%
10:00 +11°C° 0 mm 3 mps 721 mmHg 48%
11:00 +13°C° 0 mm 3 mps 721 mmHg 42%
12:00 +14°C° 0 mm 4 mps 721 mmHg 42%
13:00 +14°C° 0 mm 4 mps 721 mmHg 42%
14:00 +15°C° 0 mm 4 mps 721 mmHg 42%
15:00 +15°C° 0 mm 4 mps 721 mmHg 46%
16:00 +14°C° 0 mm 4 mps 720 mmHg 50%
17:00 +14°C° 0 mm 4 mps 720 mmHg 54%
18:00 +12°C° 0 mm 3 mps 720 mmHg 62%
19:00 +10°C° 0 mm 3 mps 720 mmHg 71%
20:00 +8°C° 0 mm 2 mps 720 mmHg 79%
21:00 +7°C° 0 mm 2 mps 720 mmHg 81%
22:00 +6°C° 0 mm 2 mps 720 mmHg 84%
23:00 +6°C° 0 mm 2 mps 721 mmHg 86%

Tomorrow, 10 May, Monday

Time Temperature Precipitation Wind Pressure Humidity
00:00 +5°C° 0 mm 2 mps 720 mmHg 85%
01:00 +5°C° 0 mm 2 mps 720 mmHg 83%
02:00 +5°C° 0 mm 2 mps 720 mmHg 82%
03:00 +5°C° 0 mm 2 mps 720 mmHg 81%
04:00 +5°C° 0 mm 2 mps 720 mmHg 79%
05:00 +5°C° 0 mm 2 mps 720 mmHg 78%
06:00 +8°C° 0 mm 2 mps 720 mmHg 70%
07:00 +10°C° 0 mm 2 mps 720 mmHg 62%
08:00 +14°C° 0 mm 2 mps 720 mmHg 53%
09:00 +16°C° 0 mm 2 mps 720 mmHg 50%
10:00 +18°C° 0 mm 2 mps 720 mmHg 46%
11:00 +20°C° 0 mm 3 mps 720 mmHg 43%
12:00 +20°C° 0 mm 3 mps 719 mmHg 43%
13:00 +21°C° 0 mm 3 mps 719 mmHg 43%
14:00 +22°C° 0 mm 3 mps 719 mmHg 43%
15:00 +21°C° 0 mm 3 mps 719 mmHg 46%
16:00 +21°C° 0 mm 3 mps 719 mmHg 50%
17:00 +20°C° 0 mm 3 mps 718 mmHg 53%
18:00 +18°C° 0 mm 3 mps 718 mmHg 63%
19:00 +15°C° 0 mm 2 mps 718 mmHg 73%
20:00 +13°C° 0 mm 2 mps 718 mmHg 83%
21:00 +12°C° 0 mm 2 mps 718 mmHg 85%
22:00 +10°C° 0 mm 2 mps 718 mmHg 86%
23:00 +10°C° 0 mm 2 mps 718 mmHg 88%

Day after tomorrow, 11 May, Tuesday

Time Temperature Precipitation Wind Pressure Humidity
00:00 +9°C° 0 mm 2 mps 718 mmHg 87%
01:00 +9°C° 0 mm 2 mps 718 mmHg 86%
02:00 +9°C° 0 mm 2 mps 717 mmHg 86%
03:00 +9°C° 0 mm 2 mps 717 mmHg 85%
04:00 +8°C° 0 mm 2 mps 717 mmHg 85%
05:00 +8°C° 0 mm 2 mps 717 mmHg 84%
06:00 +10°C° 0 mm 2 mps 717 mmHg 77%
07:00 +13°C° 0 mm 2 mps 717 mmHg 71%
08:00 +16°C° 0 mm 2 mps 717 mmHg 64%
09:00 +17°C° 0 mm 3 mps 717 mmHg 60%
10:00 +19°C° 0 mm 3 mps 717 mmHg 55%
11:00 +20°C° 0 mm 4 mps 717 mmHg 51%
12:00 +21°C° 0 mm 4 mps 717 mmHg 50%
13:00 +21°C° 0 mm 4 mps 716 mmHg 49%
14:00 +22°C° 0 mm 4 mps 716 mmHg 49%
15:00 +21°C° 0 mm 4 mps 716 mmHg 52%
16:00 +20°C° 0 mm 4 mps 715 mmHg 55%
17:00 +20°C° 0 mm 4 mps 715 mmHg 59%
18:00 +17°C° 0 mm 4 mps 715 mmHg 66%
19:00 +14°C° 0 mm 3 mps 714 mmHg 74%
20:00 +12°C° 0 mm 3 mps 714 mmHg 81%
21:00 +11°C° 0 mm 3 mps 714 mmHg 81%
22:00 +10°C° 0 mm 3 mps 714 mmHg 82%
23:00 +9°C° 0 mm 2 mps 714 mmHg 82%

12 May, Wednesday

Time Temperature Precipitation Wind Pressure Humidity
00:00 +9°C° 0 mm 2 mps 714 mmHg 84%
01:00 +8°C° 0 mm 2 mps 713 mmHg 86%
02:00 +8°C° 0 mm 2 mps 713 mmHg 88%
03:00 +8°C° 0 mm 2 mps 712 mmHg 89%
04:00 +7°C° 0 mm 2 mps 712 mmHg 90%
05:00 +7°C° 0 mm 2 mps 712 mmHg 91%
06:00 +9°C° 0 mm 2 mps 712 mmHg 83%
07:00 +11°C° 0 mm 3 mps 712 mmHg 76%
08:00 +13°C° 0 mm 4 mps 711 mmHg 69%
09:00 +13°C° 0 mm 4 mps 711 mmHg 69%
10:00 +14°C° 0 mm 5 mps 711 mmHg 68%
11:00 +15°C° 0 mm 6 mps 711 mmHg 67%
12:00 +15°C° 0 mm 6 mps 711 mmHg 67%
13:00 +14°C° 0 mm 6 mps 711 mmHg 67%
14:00 +14°C° 0 mm 6 mps 710 mmHg 67%
15:00 +14°C° 0 mm 5 mps 710 mmHg 67%
16:00 +13°C° 0 mm 5 mps 710 mmHg 68%
17:00 +13°C° 0 mm 5 mps 709 mmHg 69%
18:00 +12°C° 0 mm 4 mps 709 mmHg 74%
19:00 +10°C° 0 mm 4 mps 709 mmHg 80%
20:00 +9°C° 0 mm 3 mps 709 mmHg 85%
21:00 +9°C° 0.1 mm 3 mps 709 mmHg 87%
22:00 +8°C° 0.1 mm 3 mps 708 mmHg 88%
23:00 +8°C° 0.1 mm 3 mps 708 mmHg 90%

13 May, Thursday

Time Temperature Precipitation Wind Pressure Humidity
00:00 +8°C° 0.3 mm 2 mps 708 mmHg 91%
01:00 +8°C° 0.3 mm 2 mps 707 mmHg 93%
02:00 +8°C° 0.3 mm 2 mps 707 mmHg 94%
03:00 +8°C° 1.8 mm 2 mps 707 mmHg 95%
04:00 +8°C° 1.8 mm 2 mps 706 mmHg 97%
05:00 +9°C° 1.8 mm 1 mps 706 mmHg 98%
06:00 +9°C° 1.1 mm 2 mps 706 mmHg 98%
07:00 +9°C° 1.1 mm 2 mps 706 mmHg 97%
08:00 +10°C° 1.1 mm 2 mps 706 mmHg 97%
09:00 +10°C° 0.5 mm 2 mps 707 mmHg 94%
10:00 +12°C° 0.5 mm 2 mps 707 mmHg 91%
11:00 +13°C° 0.5 mm 2 mps 707 mmHg 88%
12:00 +13°C° 0.2 mm 3 mps 707 mmHg 82%
13:00 +13°C° 0.2 mm 3 mps 707 mmHg 76%
14:00 +14°C° 0.2 mm 4 mps 707 mmHg 70%
15:00 +14°C° 0.1 mm 4 mps 708 mmHg 70%
16:00 +14°C° 0.1 mm 4 mps 708 mmHg 71%
17:00 +14°C° 0.1 mm 4 mps 708 mmHg 71%
18:00 +13°C° 0 mm 3 mps 708 mmHg 76%
19:00 +11°C° 0 mm 3 mps 708 mmHg 81%
20:00 +10°C° 0 mm 2 mps 709 mmHg 87%
21:00 +9°C° 0 mm 2 mps 709 mmHg 88%
22:00 +9°C° 0 mm 2 mps 709 mmHg 90%
23:00 +8°C° 0 mm 2 mps 709 mmHg 91%

14 May, Friday

Time Temperature Precipitation Wind Pressure Humidity
00:00 +8°C° 0 mm 2 mps 709 mmHg 92%
01:00 +8°C° 0 mm 2 mps 709 mmHg 92%
02:00 +8°C° 0 mm 2 mps 709 mmHg 92%
03:00 +8°C° 0 mm 2 mps 709 mmHg 92%
04:00 +8°C° 0 mm 2 mps 710 mmHg 92%
05:00 +7°C° 0 mm 2 mps 710 mmHg 93%
06:00 +9°C° 0 mm 2 mps 710 mmHg 88%
07:00 +10°C° 0 mm 2 mps 710 mmHg 84%
08:00 +13°C° 0 mm 2 mps 711 mmHg 80%
09:00 +13°C° 0.1 mm 2 mps 711 mmHg 80%
10:00 +13°C° 0.1 mm 2 mps 711 mmHg 81%
11:00 +13°C° 0.1 mm 2 mps 711 mmHg 81%
12:00 +13°C° 0.1 mm 2 mps 712 mmHg 79%
13:00 +12°C° 0.1 mm 3 mps 712 mmHg 77%
14:00 +12°C° 0.1 mm 3 mps 713 mmHg 75%
15:00 +12°C° 0.1 mm 3 mps 713 mmHg 76%
16:00 +12°C° 0.1 mm 3 mps 713 mmHg 78%
17:00 +11°C° 0.1 mm 3 mps 713 mmHg 79%
18:00 +11°C° 0 mm 3 mps 713 mmHg 81%
19:00 +10°C° 0 mm 3 mps 713 mmHg 84%
20:00 +9°C° 0 mm 2 mps 714 mmHg 86%
21:00 +9°C° 0 mm 2 mps 714 mmHg 88%
22:00 +9°C° 0 mm 2 mps 714 mmHg 89%
23:00 +8°C° 0 mm 2 mps 715 mmHg 90%
Show more

We Need Your Consent

Meteoprog and our Service Providers may store and access personal data such as cookies, device identifiers or other similar technologies on your device and process such data to personalise content and ads, as well as provide social media features and to analyse the traffic.

  • Store and/or access information on your device

    Cookies, device identifiers or other information can be stored or accessed on your device for the purposes indicated above.

  • Personalised ads and content, ad and content measurement, audience insights, and products development

    Ads and content can be personalised based on a profile. More data can be added to better personalise ads and content. Ad and content performance can be measured. Insights about the audience who saw the ads and content can be derived. Such data can be used to develop or improve user’s experience, systems and software.

By clicking ‘I Agree’ you will allow the use of indicated cookies, device identifiers, web beacons or other similar technologies. Your settings can be changed in the browser on your device.

For certain purposes, legitimate interests may be relied on, rather than consent. You can read more about this in our Privacy and Cookie Policy.